Entrance Island, British Columbia

3:49 AM PST on February 27, 2017 (GMT -0800)
Entrance

Weather History for CWEL - September, 2013

Change the Weather History Date:

Tuesday, September 3, 2013

  Actual Average Record
Temperature  
Mean Temperature 63 °F -  
Max Temperature 66 °F - - ()
Min Temperature 60 °F - - ()
Degree Days  
Heating Degree Days 2    
Growing Degree Days 13 (Base 50)    
Moisture  
Dew Point 59 °F    
Average Humidity 87    
Maximum Humidity 91    
Minimum Humidity 81    
Precipitation  
Precipitation 0.28 in - - ()
Sea Level Pressure  
Sea Level Pressure 29.99 in    
Wind  
Wind Speed 4 mph ()    
Max Wind Speed 13 mph    
Max Gust Speed 22 mph    
T = Trace of Precipitation, MM = Missing Value Source: Averaged Metar Reports

Daily Weather History Graph

Daily Weather History Graph

Search for Another Location

Airport or City:

Trip Planner

Search our weather history database for the weather conditions in past years. The results will help you decide how hot, cold, wet, or windy it might be!

Date:

Astronomy

Sep. 03, 2013 Rise Set
Actual Time 6:34 AM PDT 7:52 PM PDT
Civil Twilight 6:01 AM PDT 8:25 PM PDT
Nautical Twilight 5:22 AM PDT 9:05 PM PDT
Astronomical Twilight 4:39 AM PDT 9:48 PM PDT
Moon 4:50 AM PDT (9/3) 6:44 PM PDT (9/3)
Length of Visible Light 14h 23m
Length of Day
13h 18m
Waning Crescent, 3% of the Moon is Illuminated
Sep 3
Waning Crescent
Sep 5
New
Sep 12
First Quarter
Sep 19
Full
Sep 26
Last Quarter

Hourly Weather History & Observations

Time (PDT) Temp. Dew Point Humidity Pressure Visibility Wind Dir Wind Speed Gust Speed Precip Events Conditions
12:00 AM 62.4 °F 58.1 °F 86% 29.94 in - SW 1.2 mph - N/A   Unknown
1:00 AM 63.3 °F 58.5 °F 84% 29.95 in - WNW 4.6 mph - N/A   Unknown
2:00 AM 62.6 °F 58.3 °F 86% 29.95 in - West 2.3 mph - N/A   Unknown
3:00 AM 61.3 °F 57.9 °F 89% 29.94 in - West 1.2 mph - N/A   Unknown
4:00 AM 62.2 °F 58.8 °F 89% 29.94 in - West 3.5 mph - N/A   Unknown
5:00 AM 61 °F 58 °F 85% 29.95 in - WNW 3.5 mph - -  
5:00 AM 60.8 °F 57.7 °F 90% 29.95 in - WNW 3.5 mph - N/A   Unknown
6:00 AM 61.5 °F 58.8 °F 91% 29.95 in - SSW 4.6 mph - N/A   Unknown
7:00 AM 62.1 °F 59.4 °F 91% 29.96 in - ESE 12.7 mph 21.9 mph 0.02 in   Unknown
8:00 AM 61.9 °F 59.2 °F 91% 29.97 in - NNW 3.5 mph - 0.09 in   Unknown
9:00 AM 61.5 °F 59.0 °F 91% 29.98 in - ENE 9.2 mph 20.7 mph 0.12 in   Unknown
10:00 AM 62.6 °F 60.1 °F 91% 30.00 in - SSW 6.9 mph - 0.02 in   Unknown
11:00 AM 62 °F 59 °F 88% 29.99 in - WNW 1.2 mph - -  
11:00 AM 62.1 °F 59.4 °F 91% 29.99 in - WNW 1.2 mph - 0.02 in   Unknown
12:00 PM 62.6 °F 59.4 °F 89% 30.01 in - South 9.2 mph - 0.05 in   Unknown
1:00 PM 65.5 °F 61.9 °F 88% 29.99 in - NE 1.2 mph - 0.01 in   Unknown
2:00 PM 64.9 °F 60.3 °F 85% 30.01 in - East 4.6 mph - N/A   Unknown
3:00 PM 65.5 °F 61.0 °F 85% 30.00 in - ESE 9.2 mph - N/A   Unknown
4:00 PM 65.5 °F 60.8 °F 85% 29.99 in - ESE 11.5 mph - N/A   Unknown
5:00 PM 65 °F 60 °F 81% 30.01 in - SE 6.9 mph - -  
5:00 PM 65.1 °F 60.4 °F 85% 30.01 in - SE 6.9 mph - N/A   Unknown
6:00 PM 64.8 °F 59.9 °F 84% 30.00 in - ESE 8.1 mph - N/A   Unknown
7:00 PM 66.0 °F 60.1 °F 81% 30.00 in - SSE 2.3 mph - N/A   Unknown
8:00 PM 63.9 °F 59.4 °F 85% 30.01 in - SE 2.3 mph - N/A   Unknown
9:00 PM 63.1 °F 59.2 °F 87% 30.03 in - South 1.2 mph - N/A   Unknown
10:00 PM 61.9 °F 58.5 °F 89% 30.05 in - WNW 2.3 mph - N/A   Unknown
11:00 PM 62 °F 58 °F 84% 30.05 in - WNW 3.5 mph - -  
11:00 PM 61.5 °F 58.3 °F 89% 30.05 in - WNW 3.5 mph - N/A   Unknown